Weather observations for the past three days for
Harlan
Imperial (Metric)
Date Time (edt) Wind (mph) Vis. (mi.) Weather Sky Cond. Temperature (ºF) Relative Humidity Wind Chill (°F) Heat Index (°F) Pressure Precipitation (in)
Air Dwpt 6 hour altimeter (in) sea level (mb) 1 hr 3 hr 6 hr
Max. Min.
01 12:55 SW 5 7.00 Partly Cloudy SCT042 87.8 70.9 57% 94 30.19 0.0
01 12:35 S 3 7.00 Fair CLR 86.2 70.7 60% 91 30.2 0.0
01 12:15 Calm 7.00 Fair CLR 85.5 71.4 63% 91 30.21 0.0
01 11:55 Calm 7.00 Fair CLR 84.4 71.1 64% 89 30.21 0.0
01 11:35 Calm 7.00 Fair CLR 82.2 70.3 67% 86 30.21 0.0
01 11:15 Calm 7.00 Fair CLR 81.3 70.5 70% 85 30.22 0.0
01 10:55 Calm 7.00 Fair CLR 79.3 71.8 78% 83 30.22 0.0
01 10:35 Calm 7.00 Fair CLR 76.5 70.7 82% 78 30.22 0.0
01 10:15 Calm 7.00 Partly Cloudy SCT003 74.3 69.6 85% 30.22 0.0
01 09:55 Calm 5.00 Overcast OVC003 71.8 70 94% 30.22 0.0
01 09:35 Calm 1.50 Overcast OVC001 70.2 70 99% 30.22 0.0
01 09:15 Calm 2.50 Overcast OVC001 70 70 100% 30.23 0.0
01 08:55 Calm 0.75 Overcast OVC001 68.9 68.9 100% 30.23 0.0
01 08:35 Calm 0.75 Overcast OVC001 69.1 69.1 100% 30.22 0.0
01 08:15 Calm 0.50 Overcast OVC001 68.9 68.9 100% 30.22 0.0
01 07:55 Calm 0.50 Overcast OVC001 68.9 68.9 70 68.9 100% 30.22 0.0
01 07:35 Calm 0.50 Overcast OVC001 68.9 68.9 100% 30.2 0.0
01 07:15 Calm 0.75 Overcast OVC001 68.9 68.9 100% 30.2 0.0
01 06:55 Calm 1.50 Overcast OVC001 68.9 68.9 100% 30.18 0.0
01 06:35 Calm 0.75 Overcast OVC001 68.9 68.9 100% 30.18 0.0
01 06:15 Calm 0.75 Overcast OVC001 69.1 69.1 100% 30.18 0.0
01 05:55 Calm 1.25 Overcast OVC001 69.3 69.3 100% 30.17 0.0
01 05:35 Calm 0.75 Overcast OVC001 69.3 69.3 100% 30.16 0.0
01 05:15 Calm 1.50 Overcast OVC001 69.4 69.4 100% 30.16 0.0
01 04:55 Calm 1.25 Overcast OVC001 69.4 69.4 100% 30.16 0.0
01 04:35 Calm 1.00 Overcast OVC001 69.8 69.8 100% 30.16 0.0
01 04:15 Calm 0.75 Overcast OVC001 69.8 69.8 100% 30.16 0.0
01 03:55 Calm 1.50 Overcast OVC001 69.6 69.6 100% 30.16 0.0
01 03:15 Calm 1.50 Overcast OVC001 69.8 69.8 100% 30.17 0.0
01 02:55 Calm 4.00 Overcast OVC001 69.8 69.8 100% 30.18 0.0
01 02:35 Calm 4.00 Overcast OVC001 69.8 69.8 100% 30.18 0.0
01 02:15 Calm 5.00 Mostly Cloudy BKN001 69.8 69.8 100% 30.18 0.0
01 01:55 Calm 5.00 Partly Cloudy SCT001 69.8 69.8 79 69.8 100% 30.18 0.0
01 01:35 Calm 2.50 Mostly Cloudy BKN001 70 70 100% 30.18 0.0
01 01:15 Calm 4.00 Partly Cloudy SCT001 70 70 100% 30.18 0.0
01 00:55 Calm 4.00 Partly Cloudy SCT001 70.3 70.3 100% 30.18 0.0
01 00:35 Calm 5.00 Partly Cloudy SCT001 70.7 70.7 100% 30.18 0.0
31 23:55 Calm 5.00 Fair CLR 71.2 71.2 100% 30.18 0.0
31 23:35 Calm 5.00 Fair CLR 71.4 71.4 100% 30.18 0.0
31 23:15 Calm 5.00 Fair CLR 71.8 71.6 99% 30.18 0.0
31 22:55 Calm 7.00 Fair CLR 72.7 72.1 98% 30.17 0.0
31 22:35 Calm 5.00 Fair CLR 72.5 72.1 99% 30.17 0.0
31 22:15 Calm 7.00 Fair CLR 72.9 72 97% 30.17 0.0
31 21:55 Calm 7.00 Fair CLR 73.4 72 95% 30.17 0.0
31 21:35 Calm 7.00 Fair CLR 73.8 71.8 94% 30.16 0.0
31 21:15 Calm 7.00 Fair CLR 74.3 72 92% 30.16 0.0
31 20:55 Calm 10.00 Fair CLR 75.4 71.6 88% 75 30.15 0.0
31 20:35 Calm 7.00 Fair CLR 76.3 72 87% 77 30.15 0.0
31 20:15 Calm 10.00 Fair CLR 77.9 72 82% 80 30.15 0.0
31 19:35 Calm 10.00 Fair CLR 82 72 72% 87 30.15 0.0
31 19:15 Calm 7.00 Fair CLR 84.4 72.1 67% 90 30.15 0.0
31 18:55 Calm 5.00 Fair CLR 85.6 71.6 63% 91 30.15 0.0
31 18:35 Calm 7.00 Fair CLR 87.4 69.3 55% 92 30.15 0.0
31 18:15 Calm 7.00 Fair CLR 87.8 68.9 54% 92 30.15 0.0
31 17:55 W 3 10.00 Fair CLR 88 67.3 50% 91 30.15 0.0
31 17:35 W 5 7.00 Fair CLR 89.4 68 49% 93 30.16 0.0
31 17:15 W 5 7.00 Partly Cloudy SCT090 88.9 67.3 49% 92 30.16 0.0
31 16:55 W 6 10.00 Mostly Cloudy SCT049 SCT070 BKN090 88.9 67.5 49% 92 30.16 0.0
31 16:35 SW 5 7.00 Overcast SCT049 BKN075 OVC080 89.6 67.5 48% 93 30.16 0.0
31 16:15 W 3 10.00 Mostly Cloudy BKN049 BKN085 89.8 68.2 49% 94 30.17 0.0
31 15:55 W 5 7.00 Partly Cloudy SCT049 90.3 68.7 49% 95 30.18 0.0
31 15:35 SW 3 10.00 Partly Cloudy SCT046 89.1 67.1 48% 92 30.18 0.0
31 15:15 SW 3 10.00 Partly Cloudy SCT050 SCT080 SCT090 87.8 68.2 52% 92 30.19 0.0
31 14:55 SW 5 7.00 Partly Cloudy SCT055 SCT070 SCT095 87.8 67.6 51% 91 30.19 0.0
31 14:35 SW 3 7.00 Partly Cloudy SCT055 SCT070 SCT095 88.2 69.3 54% 93 30.2 0.0
31 14:15 W 3 7.00 Mostly Cloudy SCT060 SCT075 BKN085 85.1 69.8 60% 90 30.2 0.0
31 13:55 W 5 10.00 Mostly Cloudy SCT036 SCT060 BKN070 87.4 68.5 88 66.6 54% 91 30.2 0.0
31 13:35 Calm 10.00 Partly Cloudy SCT036 SCT050 SCT070 87.3 68.7 54% 91 30.2 0.0
31 13:15 S 5 10.00 Partly Cloudy SCT060 86.5 70.2 58% 91 30.21 0.0
31 12:55 SW 3 10.00 Fair CLR 86 70.3 60% 91 30.22 0.0
31 12:35 W 5 10.00 Fair CLR 84.7 70.5 62% 90 30.22 0.0
31 12:15 S 3 10.00 Fair CLR 83.8 70.7 65% 89 30.23 0.0
31 11:55 SW 5 10.00 Fair CLR 82.9 69.6 64% 87 30.23 0.0
31 11:35 SW 3 10.00 Fair CLR 81.1 69.1 67% 84 30.23 0.0
31 11:15 Calm 10.00 Fair CLR 79.3 68.2 69% 82 30.23 0.0
31 10:55 Calm 10.00 Fair CLR 78.8 69.8 74% 81 30.23 0.0
31 10:35 Calm 10.00 Fair CLR 76.1 69.1 79% 77 30.23 0.0
31 10:15 Calm 10.00 Partly Cloudy SCT004 73 68.2 85% 30.23 0.0
31 09:55 Calm 10.00 Mostly Cloudy BKN002 70.7 68.2 92% 30.23 0.0
31 09:35 Calm 3.00 Overcast OVC002 68.7 67.5 96% 30.23 0.0
31 09:15 Calm 3.00 Overcast OVC002 68.5 68.2 99% 30.24 0.0
31 08:55 Calm 2.50 Overcast OVC002 67.8 67.6 99% 30.23 0.0
31 08:35 Calm 0.50 Overcast OVC002 66.7 66.7 100% 30.23 0.0
31 08:15 Calm 1.00 Overcast OVC002 66.9 66.9 100% 30.22 0.0
31 07:55 Calm 1.00 Overcast OVC002 66.4 66.4 68 66.2 100% 30.22 0.0
31 07:35 Calm 1.00 Overcast OVC002 66.7 66.7 100% 30.22 0.0
31 07:15 Calm 2.50 Overcast OVC002 66.7 66.7 100% 30.21 0.0
31 06:55 Calm 1.25 Overcast OVC002 66.7 66.7 100% 30.21 0.0
31 06:15 Calm 1.75 Overcast OVC002 66.9 66.9 100% 30.2 0.0
31 05:55 Calm 1.00 Overcast OVC002 66.7 66.7 100% 30.19 0.0
31 05:35 Calm 1.50 Overcast OVC002 67.1 67.1 100% 30.19 0.0
31 05:15 Calm 1.00 Overcast OVC002 67.3 67.3 100% 30.19 0.0
31 04:55 Calm 1.75 Overcast OVC002 67.3 67.3 100% 30.18 0.0
31 04:35 Calm 2.00 Overcast OVC002 67.3 67.3 100% 30.18 0.0
31 04:15 Calm 1.75 Overcast OVC002 67.3 67.3 100% 30.18 0.0
31 03:55 Calm 3.00 Overcast OVC002 67.8 67.8 100% 30.17 0.0
31 03:35 Calm 4.00 Overcast OVC002 67.5 67.5 100% 30.18 0.0
31 03:15 Calm 5.00 Mostly Cloudy BKN002 67.3 67.3 100% 30.18 0.0
31 02:55 Calm 5.00 Mostly Cloudy BKN002 67.5 67.5 100% 30.18 0.0
31 02:35 Calm 7.00 Mostly Cloudy BKN002 67.8 67.8 100% 30.19 0.0
31 02:15 Calm 7.00 Partly Cloudy SCT002 68 68 100% 30.19 0.0
31 01:55 Calm 7.00 Fair CLR 68 68 77 67.8 100% 30.19 0.0
31 01:35 Calm 5.00 Partly Cloudy SCT001 68 68 100% 30.2 0.0
31 01:15 Calm 7.00 Partly Cloudy SCT001 68.4 68.4 100% 30.2 0.0
31 00:55 Calm 7.00 Fair CLR 68.7 68.7 100% 30.2 0.0
31 00:35 Calm 7.00 Fair CLR 69.1 69.1 100% 30.2 0.0
31 00:15 Calm 7.00 Fair CLR 69.4 69.3 99% 30.2 0.0
30 23:55 Calm 7.00 Fair CLR 69.8 69.4 99% 30.2 0.0
30 23:35 Calm 7.00 Fair CLR 69.8 69.4 99% 30.19 0.0
30 23:15 Calm 7.00 Fair CLR 70.2 69.8 99% 30.19 0.0
30 22:55 Calm 7.00 Fair CLR 70.7 69.8 97% 30.2 0.0
30 22:35 Calm 7.00 Fair CLR 70.7 70.3 99% 30.2 0.0
30 22:15 Calm 7.00 Fair CLR 71.2 70.7 98% 30.18 0.0
30 21:55 Calm 7.00 Fair CLR 71.2 70 96% 30.18 0.0
30 21:35 Calm 7.00 Fair CLR 72 70 94% 30.17 0.0
30 21:15 Calm 7.00 Fair CLR 72.5 70 92% 30.17 0.0
30 20:55 Calm 10.00 Fair CLR 73 69.4 89% 30.17 0.0
30 20:35 Calm 7.00 Fair CLR 74.8 68.4 80% 30.16 0.0
30 20:15 Calm 7.00 Fair CLR 75.6 70 83% 76 30.16 0.0
30 19:55 Calm 7.00 Fair CLR 77.7 70.3 87.8 77.7 78% 80 30.16 0.0
30 19:35 Calm 7.00 Fair CLR 79.5 70.7 75% 83 30.15 0.0
30 19:15 Calm 10.00 Fair CLR 81.5 70.3 69% 85 30.15 0.0
30 18:55 Calm 7.00 Fair CLR 85.6 69.1 58% 90 30.15 0.0
30 18:35 Calm 7.00 Fair CLR 85.8 68.4 56% 89 30.15 0.0
30 18:15 Calm 10.00 Fair CLR 86.2 66.9 53% 89 30.15 0.0
30 17:55 Calm 10.00 Fair CLR 86.5 66.9 52% 89 30.15 0.0
30 17:35 Calm 7.00 Fair CLR 86.7 66.4 51% 89 30.15 0.0
30 17:15 S 3 7.00 Partly Cloudy SCT110 85.8 66.7 53% 88 30.15 0.0
30 16:55 Calm 10.00 Mostly Cloudy BKN110 86.2 67.8 54% 89 30.15 0.0
30 16:35 W 3 10.00 Mostly Cloudy BKN110 84.4 70 62% 89 30.16 0.0
30 16:15 NW 3 10.00 Overcast OVC110 84.2 68.2 59% 88 30.17 0.0
30 15:55 NW 6 7.00 Mostly Cloudy SCT060 BKN110 85.5 67.6 55% 89 30.18 0.0
30 15:35 NW 8 7.00 Mostly Cloudy SCT043 BKN060 85.5 67.8 56% 89 30.18 0.0
30 15:15 W 3 7.00 Fair CLR 86.7 66.7 51% 89 30.19 0.0
30 14:55 W 6 10.00 Partly Cloudy SCT041 SCT080 SCT110 86.4 67.6 54% 90 30.2 0.0
30 14:35 W 3 5.00 Partly Cloudy SCT110 86.5 66.6 51% 89 30.2 0.0
30 14:15 NW 5 10.00 Partly Cloudy SCT120 86.5 67.6 53% 90 30.21 0.0
30 13:55 SW 3 4.00 Partly Cloudy SCT120 85.1 66.9 85.8 66.2 55% 88 30.22 0.0
30 13:35 Calm 10.00 Fair CLR 84.4 68.2 58% 88 30.22 0.0
30 13:15 W 6 7.00 Fair CLR 83.8 67.8 59% 87 30.23 0.0
30 12:55 Calm 7.00 Fair CLR 83.8 68 59% 87 30.24 0.0
30 12:35 SW 3 7.00 Partly Cloudy SCT030 82.4 67.6 61% 85 30.24 0.0
30 12:15 Calm 7.00 Partly Cloudy SCT030 SCT034 83.3 69.3 63% 87 30.25 0.0
30 11:55 Calm 7.00 Partly Cloudy SCT032 82.6 69.3 64% 86 30.25 0.0
30 11:35 Calm 10.00 Partly Cloudy SCT029 SCT048 82 69.3 65% 86 30.25 0.0
30 11:15 Calm 10.00 Partly Cloudy SCT046 80.2 68.9 68% 83 30.25 0.0
30 10:55 Calm 10.00 Fair CLR 79.9 69.3 70% 83 30.25 0.0
30 10:35 Calm 10.00 Fair CLR 79.5 70.2 73% 83 30.25 0.0
30 10:15 Calm 10.00 Fair CLR 76.3 70 81% 77 30.25 0.0
30 09:55 Calm 10.00 Fair CLR 74.5 68.7 82% 30.25 0.0
30 09:35 Calm 10.00 Fair CLR 72.3 68.4 87% 30.25 0.0
30 09:15 Calm 7.00 Mostly Cloudy BKN001 69.4 68.4 96% 30.24 0.0
30 08:55 Calm 5.00 Overcast OVC001 68 68 100% 30.24 0.0
30 08:35 Calm 3.00 Overcast OVC001 67.1 67.1 100% 30.24 0.0
30 08:15 Calm 1.00 Overcast OVC001 66.4 66.4 100% 30.24 0.0
30 07:55 Calm 0.50 Overcast OVC001 66.2 66.2 68.2 65.8 100% 30.23 0.0
30 07:35 Calm 3.00 Overcast OVC001 66.2 66.2 100% 30.23 0.0
30 07:15 Calm 2.00 Overcast OVC001 66.2 66.2 100% 30.22 0.0
30 06:55 Calm 4.00 Overcast OVC001 66.2 66.2 100% 30.22 0.0
30 06:35 Calm 5.00 Overcast OVC001 66.2 66.2 100% 30.22 0.0
30 06:15 Calm 3.00 Overcast OVC001 65.8 65.8 100% 30.22 0.0
30 05:55 Calm 4.00 Overcast OVC001 66.2 66.2 100% 30.22 0.0
30 05:35 Calm 4.00 Overcast OVC001 66.2 66.2 100% 30.21 0.0
30 05:15 Calm 5.00 Mostly Cloudy BKN001 66.2 66.2 100% 30.2 0.0
30 04:55 Calm 1.75 Mostly Cloudy BKN001 66.4 66.4 100% 30.2 0.0
30 04:35 Calm 7.00 Partly Cloudy SCT001 66.6 66.6 100% 30.2 0.0
30 04:15 Calm 7.00 Fair CLR 66.7 66.7 100% 30.2 0.0
30 03:55 Calm 5.00 Partly Cloudy SCT001 66.7 66.7 100% 30.2 0.0
30 03:35 Calm 7.00 Mostly Cloudy BKN001 67.1 67.1 100% 30.2 0.0
30 03:15 Calm 5.00 Mostly Cloudy BKN001 BKN048 67.1 67.1 100% 30.2 0.0
30 02:55 Calm 5.00 Mostly Cloudy SCT001 BKN048 67.3 67.3 100% 30.2 0.0
30 02:35 Calm 5.00 Mostly Cloudy SCT001 BKN046 67.6 67.6 100% 30.21 0.0
30 02:15 Calm 7.00 Overcast OVC046 68 68 100% 30.21 0.0
30 01:55 Calm 7.00 Partly Cloudy SCT041 SCT048 68.4 68.4 76.5 68 100% 30.21 0.0
30 01:35 Calm 7.00 Fair CLR 68 68 100% 30.21 0.0
30 01:15 Calm 7.00 Fair CLR 68.2 68.2 100% 30.21 0.0
30 00:55 Calm 7.00 Fair CLR 68.5 68.5 100% 30.2 0.0
30 00:35 Calm 7.00 Fair CLR 68.9 68.7 99% 30.21 0.0
30 00:15 E 3 7.00 Fair CLR 69.1 68.9 99% 30.2 0.0
29 23:55 Calm 7.00 Fair CLR 69.4 69.3 99% 30.21 0.0
29 23:35 Calm 7.00 Fair CLR 69.8 69.4 99% 30.2 0.0
29 23:15 Calm 7.00 Fair CLR 70 69.6 99% 30.2 0.0
29 22:55 Calm 10.00 Fair CLR 70.5 69.6 97% 30.2 0.0
29 22:35 Calm 7.00 Fair CLR 70.9 69.8 96% 30.2 0.0
29 22:15 Calm 7.00 Partly Cloudy SCT065 71.1 70 96% 30.19 0.0
29 21:55 Calm 7.00 Partly Cloudy SCT065 71.2 70 96% 30.18 0.0
29 21:35 Calm 7.00 Partly Cloudy SCT065 71.6 69.8 94% 30.18 0.0
29 21:15 Calm 10.00 Fair CLR 72 69.8 93% 30.17 0.0
29 20:55 Calm 7.00 Fair CLR 73.2 69.8 89% 30.16 0.0
29 20:15 Calm 10.00 Fair CLR 75.2 69.8 83% 75 30.15 0.0
29 19:55 Calm 10.00 Fair CLR 77.2 70 88 77.2 79% 79 30.15 0.0
29 19:35 Calm 7.00 Fair CLR 80.2 69.8 71% 83 30.15 0.0
29 19:15 Calm 10.00 Fair CLR 84.2 70 62% 89 30.14 0.0
29 18:55 Calm 7.00 Fair CLR 84.4 68.2 58% 88 30.15 0.0
29 18:35 Calm 10.00 Fair CLR 84.4 66.7 56% 87 30.14 0.0
29 18:15 Calm 10.00 Fair CLR 85.1 66 53% 87 30.14 0.0
29 17:55 Calm 7.00 Fair CLR 86.7 64.9 48% 88 30.14 0.0
29 17:35 Calm 7.00 Fair CLR 86.5 64.8 48% 88 30.14 0.0
29 17:15 Calm 10.00 Fair CLR 86.9 64.6 47% 88 30.14 0.0
29 16:55 S 5 10.00 Fair CLR 86.9 64.8 48% 89 30.15 0.0
29 16:35 Calm 7.00 Fair CLR 86.4 63.5 47% 87 30.16 0.0
29 16:15 S 3 10.00 Fair CLR 86.7 64.2 47% 88 30.16 0.0
29 15:55 SE 3 7.00 Fair CLR 87.8 65.1 47% 90 30.17 0.0
29 15:35 S 5 10.00 Partly Cloudy SCT050 86.9 63.7 46% 88 30.17 0.0
29 15:15 Calm 10.00 Fair CLR 87.1 65.5 49% 89 30.18 0.0
29 14:55 W 5 7.00 Partly Cloudy SCT075 SCT090 86.2 64.8 49% 88 30.18 0.0
29 14:35 Calm 10.00 Partly Cloudy SCT075 83.3 64.9 54% 85 30.18 0.0
29 14:15 Calm 7.00 Fair CLR 85.8 63 46% 87 30.19 0.0
29 13:55 SE 5 5.00 Partly Cloudy SCT046 86.2 65.7 86.2 63.5 50% 88 30.19 0.0
29 13:35 Calm 7.00 Fair CLR 84.6 65.1 52% 86 30.2 0.0
29 13:15 E 5 7.00 Fair CLR 83.8 66.7 57% 86 30.2 0.0
Date Time (edt) Wind (mph) Vis. (mi.) Weather Sky Cond. Air Dwpt Max. Min. Relative Humidity Wind Chill (°F) Heat Index (°F) altimeter (in) sea level (mb) 1 hr 3 hr 6 hr
6 hour
Temperature (ºF) Pressure Precipitation (in)